Tracking 32938 objects as of 14-Jan-2026
HD Live streaming from Space Station
objects crossing your sky now

STARLINK-32009

Track STARLINK-32009 now!
10-day predictions
STARLINK-32009 is classified as:


NORAD ID: 60104
Int'l Code: 2024-117P
Perigee: 481.4 km
Apogee: 483.2 km
Inclination: 53.2 °
Period: 94.1 minutes
Semi major axis: 6853 km
RCS: Unknown
Launch date: June 23, 2024
Source: United States (US)
Launch site: AIR FORCE EASTERN TEST RANGE (AFETR)
Your satellite tracking list
Your tracking list is empty




NASA's NSSDC Master Catalog

Two Line Element Set (TLE):
1 60104U 24117P   26013.50756945  .00000541  00000-0  30374-4 0  9990
2 60104  53.1617 293.7159 0001314  96.9925 263.1225 15.30205597 88432
Source of the keplerian elements: AFSPC